AFR1018 FMEE-FSIA

Flight info

Callsign AFR1018
Flight time 2h 22m
Altitude 34000
Route NIBIS2J NIBIS UM314 AMBAN/N0456F350 UM314 RUBAM DCT NESID NESID1E
Aircraft A319/M-SDE3FGHIRWY/LB1

Departure

Time 2026-04-27 08:45
Airport Roland Garros Airport (FMEE)

Arrival

Time 2026-04-27 11:08
Airport Seychelles International Airport (FSIA)
Time Latitude Longitude Altitude Speed Heading
2026-04-27 08:17 -20.88994 55.51047 123 ft 0 kts 205°
2026-04-27 08:38 -20.88984 55.51052 123 ft 2 kts 206°
2026-04-27 08:38 -20.88970 55.51059 123 ft 2 kts 205°
2026-04-27 08:38 -20.88961 55.51064 123 ft 2 kts 206°
2026-04-27 08:38 -20.88945 55.51069 123 ft 2 kts 183°
2026-04-27 08:39 -20.88929 55.51068 123 ft 2 kts 165°
2026-04-27 08:39 -20.88915 55.51062 123 ft 2 kts 148°
2026-04-27 08:39 -20.88903 55.51051 123 ft 2 kts 130°
2026-04-27 08:39 -20.88897 55.51043 123 ft 0 kts 118°
2026-04-27 08:40 -20.88894 55.51036 123 ft 0 kts 115°
2026-04-27 08:41 -20.88895 55.51037 123 ft 0 kts 115°
2026-04-27 08:41 -20.88899 55.51045 123 ft 2 kts 115°
2026-04-27 08:42 -20.88910 55.51070 123 ft 4 kts 115°
2026-04-27 08:42 -20.88926 55.51106 123 ft 6 kts 115°
2026-04-27 08:42 -20.88942 55.51159 123 ft 8 kts 73°
2026-04-27 08:42 -20.88879 55.51168 123 ft 11 kts 339°
2026-04-27 08:43 -20.88791 55.51134 123 ft 14 kts 340°
2026-04-27 08:43 -20.88743 55.51147 122 ft 4 kts 51°
2026-04-27 08:43 -20.88742 55.51183 122 ft 1 kts 100°
2026-04-27 08:44 -20.88742 55.51185 123 ft 2 kts 101°
2026-04-27 08:45 -20.88800 55.51457 122 ft 71 kts 102°
2026-04-27 08:45 -20.88953 55.52215 121 ft 129 kts 102°
2026-04-27 08:45 -20.89176 55.53348 311 ft 159 kts 101°
2026-04-27 08:45 -20.89383 55.54516 868 ft 160 kts 91°
2026-04-27 08:46 -20.89056 55.55714 1382 ft 167 kts 52°
2026-04-27 08:46 -20.88025 55.56413 1939 ft 175 kts 13°
2026-04-27 08:46 -20.86751 55.56234 2431 ft 189 kts 338°
2026-04-27 08:46 -20.85613 55.55322 2854 ft 210 kts 313°
2026-04-27 08:47 -20.84681 55.53988 3310 ft 227 kts 308°
2026-04-27 08:47 -20.83682 55.52509 3808 ft 244 kts 308°
2026-04-27 08:47 -20.82620 55.50961 4338 ft 259 kts 308°
2026-04-27 08:47 -20.81454 55.49291 4910 ft 272 kts 308°
2026-04-27 08:48 -20.80165 55.47637 5517 ft 283 kts 314°
2026-04-27 08:48 -20.78752 55.46098 6275 ft 286 kts 316°
2026-04-27 08:48 -20.77278 55.44565 7048 ft 289 kts 317°
2026-04-27 08:48 -20.75807 55.43050 7800 ft 291 kts 317°
2026-04-27 08:49 -20.74286 55.41482 8557 ft 294 kts 317°
2026-04-27 08:49 -20.72736 55.39883 9288 ft 297 kts 316°
2026-04-27 08:49 -20.71201 55.38296 9965 ft 301 kts 316°
2026-04-27 08:49 -20.69573 55.36700 10517 ft 309 kts 325°
2026-04-27 08:50 -20.67495 55.35715 10809 ft 322 kts 351°
2026-04-27 08:50 -20.65110 55.35683 11180 ft 333 kts
2026-04-27 08:50 -20.62712 55.36033 11742 ft 338 kts
2026-04-27 08:50 -20.60262 55.36419 12357 ft 342 kts
2026-04-27 08:51 -20.57761 55.36785 12961 ft 345 kts
2026-04-27 08:51 -20.55325 55.37116 13518 ft 349 kts
2026-04-27 08:51 -20.52753 55.37445 14091 ft 352 kts
2026-04-27 08:51 -20.50171 55.37764 14645 ft 356 kts
2026-04-27 08:52 -20.47587 55.38076 15177 ft 359 kts
2026-04-27 08:52 -20.44976 55.38386 15701 ft 362 kts
2026-04-27 08:52 -20.42366 55.38694 16207 ft 365 kts
2026-04-27 08:52 -20.39750 55.39001 16695 ft 368 kts
2026-04-27 08:53 -20.37144 55.39306 17164 ft 371 kts
2026-04-27 08:53 -20.34455 55.39622 17626 ft 374 kts
2026-04-27 08:53 -20.31793 55.39935 18074 ft 377 kts
2026-04-27 08:53 -20.29067 55.40256 18547 ft 380 kts
2026-04-27 08:54 -20.26353 55.40573 19001 ft 383 kts
2026-04-27 08:54 -20.23575 55.40897 19468 ft 385 kts
2026-04-27 08:54 -20.20819 55.41219 19930 ft 387 kts
2026-04-27 08:54 -20.18066 55.41540 20392 ft 389 kts
2026-04-27 08:55 -20.15243 55.41869 20856 ft 391 kts
2026-04-27 08:55 -20.12416 55.42198 21311 ft 394 kts
2026-04-27 08:55 -20.09568 55.42530 21759 ft 396 kts
2026-04-27 08:55 -20.06735 55.42860 22198 ft 398 kts
2026-04-27 08:56 -20.03880 55.43193 22631 ft 400 kts
2026-04-27 08:56 -20.01047 55.43524 23049 ft 403 kts
2026-04-27 08:56 -19.98116 55.43866 23481 ft 405 kts
2026-04-27 08:56 -19.95172 55.44210 23906 ft 407 kts
2026-04-27 08:57 -19.89335 55.44889 24719 ft 411 kts
2026-04-27 08:57 -19.86446 55.45224 25113 ft 413 kts
2026-04-27 08:57 -19.83494 55.45565 25506 ft 415 kts
2026-04-27 08:58 -19.80560 55.45906 25885 ft 417 kts
2026-04-27 08:58 -19.77491 55.46262 26282 ft 419 kts
2026-04-27 08:58 -19.74503 55.46610 26664 ft 420 kts
2026-04-27 08:58 -19.71506 55.46958 27047 ft 422 kts
2026-04-27 08:59 -19.68472 55.47310 27418 ft 424 kts
2026-04-27 08:59 -19.65429 55.47663 27790 ft 425 kts
2026-04-27 08:59 -19.62402 55.48014 28153 ft 427 kts
2026-04-27 08:59 -19.59304 55.48373 28522 ft 428 kts
2026-04-27 09:00 -19.56235 55.48729 28863 ft 430 kts
2026-04-27 09:00 -19.53191 55.49080 29184 ft 432 kts
2026-04-27 09:00 -19.50076 55.49441 29484 ft 434 kts
2026-04-27 09:00 -19.46974 55.49800 29770 ft 436 kts
2026-04-27 09:01 -19.43802 55.50167 30054 ft 439 kts
2026-04-27 09:01 -19.40617 55.50536 30413 ft 439 kts
2026-04-27 09:01 -19.37510 55.50896 30834 ft 437 kts
2026-04-27 09:01 -19.34416 55.51256 31233 ft 436 kts
2026-04-27 09:02 -19.31367 55.51609 31584 ft 435 kts
2026-04-27 09:02 -19.28241 55.51971 31950 ft 434 kts
2026-04-27 09:02 -19.25156 55.52329 32266 ft 434 kts
2026-04-27 09:02 -19.22037 55.52690 32529 ft 435 kts
2026-04-27 09:03 -19.18895 55.53052 32781 ft 436 kts
2026-04-27 09:03 -19.15767 55.53413 32992 ft 438 kts
2026-04-27 09:03 -19.12634 55.53773 33206 ft 440 kts
2026-04-27 09:03 -19.09471 55.54139 33444 ft 441 kts
2026-04-27 09:04 -19.06323 55.54502 33674 ft 442 kts
2026-04-27 09:04 -19.03167 55.54777 33836 ft 441 kts 357°
2026-04-27 09:04 -18.99982 55.54876 33840 ft 440 kts 355°
2026-04-27 09:05 -18.93701 55.54944 33852 ft 441 kts 355°
2026-04-27 09:05 -18.87322 55.55012 33852 ft 441 kts 355°
2026-04-27 09:06 -18.80996 55.55085 33853 ft 441 kts 355°
2026-04-27 09:06 -18.74631 55.55159 33853 ft 441 kts 355°
2026-04-27 09:07 -18.68333 55.55231 33848 ft 441 kts 355°
2026-04-27 09:07 -18.62018 55.55305 33841 ft 441 kts 355°
2026-04-27 09:08 -18.55652 55.55379 33831 ft 441 kts 355°
2026-04-27 09:08 -18.49276 55.55454 33838 ft 442 kts 355°
2026-04-27 09:09 -18.42871 55.55526 33840 ft 441 kts 355°
2026-04-27 09:09 -18.36547 55.55598 33838 ft 441 kts 355°
2026-04-27 09:10 -18.30206 55.55669 33838 ft 441 kts 355°
2026-04-27 09:10 -18.23849 55.55743 33828 ft 441 kts 355°
2026-04-27 09:11 -18.17557 55.55816 33826 ft 441 kts 355°
2026-04-27 09:11 -18.11187 55.55889 33824 ft 442 kts 354°
2026-04-27 09:12 -18.04825 55.55960 33828 ft 442 kts 354°
2026-04-27 09:12 -17.98463 55.56033 33824 ft 441 kts 355°
2026-04-27 09:13 -17.92007 55.56107 33826 ft 441 kts 354°
2026-04-27 09:13 -17.85639 55.56183 33826 ft 441 kts 354°
2026-04-27 09:14 -17.79295 55.56256 33822 ft 442 kts 354°
2026-04-27 09:14 -17.72923 55.56331 33825 ft 442 kts 354°
2026-04-27 09:15 -17.66543 55.56405 33827 ft 442 kts 354°
2026-04-27 09:15 -17.60231 55.56477 33832 ft 441 kts 354°
2026-04-27 09:16 -17.53880 55.56550 33831 ft 441 kts 354°
2026-04-27 09:16 -17.47522 55.56623 33832 ft 442 kts 354°
2026-04-27 09:17 -17.41177 55.56692 33834 ft 442 kts 354°
2026-04-27 09:17 -17.34725 55.56762 33831 ft 442 kts 354°
2026-04-27 09:18 -17.28323 55.56833 33833 ft 442 kts 354°
2026-04-27 09:18 -17.21954 55.56905 33834 ft 441 kts 354°
2026-04-27 09:19 -17.15589 55.56976 33830 ft 442 kts 354°
2026-04-27 09:19 -17.09192 55.57046 33826 ft 442 kts 354°
2026-04-27 09:20 -17.02827 55.57117 33815 ft 442 kts 354°
2026-04-27 09:20 -16.96470 55.57187 33817 ft 443 kts 354°
2026-04-27 09:21 -16.90047 55.57259 33814 ft 442 kts 354°
2026-04-27 09:21 -16.83669 55.57332 33818 ft 442 kts 354°
2026-04-27 09:22 -16.77246 55.57405 33826 ft 443 kts 354°
2026-04-27 09:22 -16.70864 55.57477 33827 ft 443 kts 354°
2026-04-27 09:23 -16.64519 55.57548 33828 ft 443 kts 354°
2026-04-27 09:23 -16.58101 55.57619 33830 ft 443 kts 354°
2026-04-27 09:24 -16.51625 55.57691 33829 ft 442 kts 354°
2026-04-27 09:24 -16.45247 55.57761 33830 ft 443 kts 354°
2026-04-27 09:25 -16.38849 55.57831 33831 ft 443 kts 354°
2026-04-27 09:25 -16.32416 55.57902 33830 ft 443 kts 354°
2026-04-27 09:26 -16.26074 55.57973 33835 ft 444 kts 354°
2026-04-27 09:26 -16.19582 55.58044 33834 ft 443 kts 354°
2026-04-27 09:27 -16.13218 55.58114 33836 ft 443 kts 354°
2026-04-27 09:27 -16.06850 55.58185 33835 ft 443 kts 354°
2026-04-27 09:28 -16.00431 55.58256 33834 ft 444 kts 354°
2026-04-27 09:28 -15.94032 55.58326 33830 ft 443 kts 354°
2026-04-27 09:29 -15.87652 55.58397 33829 ft 444 kts 354°
2026-04-27 09:29 -15.81235 55.58471 33826 ft 444 kts 354°
2026-04-27 09:30 -15.74812 55.58543 33828 ft 443 kts 354°
2026-04-27 09:30 -15.68407 55.58615 33829 ft 443 kts 354°
2026-04-27 09:31 -15.61937 55.58687 33836 ft 443 kts 354°
2026-04-27 09:31 -15.55546 55.58757 33835 ft 443 kts 354°
2026-04-27 09:32 -15.49168 55.58826 33835 ft 443 kts 354°
2026-04-27 09:32 -15.42750 55.58895 33833 ft 444 kts 354°
2026-04-27 09:33 -15.36393 55.58964 33835 ft 444 kts 354°
2026-04-27 09:33 -15.29963 55.59036 33835 ft 444 kts 354°
2026-04-27 09:34 -15.23594 55.59106 33834 ft 444 kts 354°
2026-04-27 09:34 -15.17186 55.59178 33834 ft 443 kts 354°
2026-04-27 09:35 -15.10786 55.59249 33835 ft 443 kts 355°
2026-04-27 09:35 -15.04334 55.59323 33833 ft 444 kts 354°
2026-04-27 09:36 -14.97882 55.59392 33835 ft 444 kts 354°
2026-04-27 09:36 -14.91521 55.59458 33837 ft 444 kts 354°
2026-04-27 09:37 -14.85046 55.59528 33845 ft 444 kts 355°
2026-04-27 09:37 -14.78624 55.59601 33854 ft 443 kts 355°
2026-04-27 09:38 -14.72217 55.59673 33850 ft 443 kts 355°
2026-04-27 09:38 -14.65828 55.59744 33841 ft 444 kts 355°
2026-04-27 09:39 -14.59400 55.59815 33838 ft 444 kts 355°
2026-04-27 09:39 -14.52964 55.59886 33837 ft 444 kts 355°
2026-04-27 09:40 -14.46512 55.59959 33837 ft 444 kts 355°
2026-04-27 09:40 -14.40085 55.60028 33837 ft 444 kts 355°
2026-04-27 09:41 -14.33678 55.60099 33837 ft 444 kts 355°
2026-04-27 09:41 -14.27252 55.60170 33837 ft 444 kts 355°
2026-04-27 09:42 -14.20847 55.60241 33836 ft 445 kts 355°
2026-04-27 09:42 -14.14450 55.60312 33837 ft 445 kts 355°
2026-04-27 09:43 -14.08025 55.60383 33838 ft 445 kts 355°
2026-04-27 09:43 -14.01612 55.60454 33838 ft 445 kts 355°
2026-04-27 09:44 -13.95150 55.60524 33835 ft 444 kts 355°
2026-04-27 09:44 -13.88664 55.60595 33837 ft 444 kts 355°
2026-04-27 09:45 -13.82274 55.60668 33839 ft 445 kts 355°
2026-04-27 09:45 -13.75825 55.60740 33845 ft 445 kts 355°
2026-04-27 09:46 -13.69341 55.60811 33852 ft 445 kts 356°
2026-04-27 09:46 -13.62914 55.60883 33852 ft 445 kts 356°
2026-04-27 09:47 -13.56548 55.60953 33851 ft 444 kts 356°
2026-04-27 09:47 -13.50145 55.61024 33853 ft 444 kts 356°
2026-04-27 09:48 -13.43709 55.61093 33840 ft 445 kts 356°
2026-04-27 09:48 -13.37343 55.61164 33834 ft 444 kts 356°
2026-04-27 09:49 -13.30852 55.61234 33836 ft 445 kts 356°
2026-04-27 09:49 -13.24421 55.61306 33836 ft 445 kts 356°
2026-04-27 09:50 -13.18043 55.61374 33833 ft 445 kts 356°
2026-04-27 09:50 -13.11568 55.61445 33834 ft 445 kts 356°
2026-04-27 09:51 -13.05171 55.61515 33836 ft 445 kts 356°
2026-04-27 09:51 -12.98789 55.61585 33836 ft 445 kts 356°
2026-04-27 09:52 -12.92403 55.61656 33836 ft 444 kts 356°
2026-04-27 09:52 -12.85974 55.61727 33838 ft 445 kts 356°
2026-04-27 09:53 -12.79517 55.61798 33838 ft 446 kts 356°
2026-04-27 09:53 -12.73073 55.61871 33838 ft 445 kts 356°
2026-04-27 09:54 -12.66622 55.61941 33837 ft 444 kts 356°
2026-04-27 09:54 -12.60219 55.62010 33839 ft 444 kts 356°
2026-04-27 09:55 -12.53777 55.62080 33841 ft 444 kts 357°
2026-04-27 09:55 -12.44223 55.62184 33840 ft 445 kts 357°
2026-04-27 09:56 -12.37829 55.62254 33837 ft 445 kts 357°
2026-04-27 09:56 -12.31407 55.62324 33829 ft 445 kts 357°
2026-04-27 09:57 -12.24979 55.62394 33825 ft 445 kts 357°
2026-04-27 09:57 -12.18523 55.62465 33825 ft 445 kts 357°
2026-04-27 09:58 -12.12121 55.62534 33828 ft 445 kts 357°
2026-04-27 09:58 -12.05729 55.62603 33834 ft 445 kts 357°
2026-04-27 09:59 -11.99296 55.62673 33837 ft 445 kts 357°
2026-04-27 09:59 -11.92857 55.62742 33836 ft 445 kts 357°
2026-04-27 10:00 -11.86415 55.62813 33835 ft 445 kts 357°
2026-04-27 10:00 -11.80008 55.62885 33837 ft 445 kts 357°
2026-04-27 10:01 -11.73548 55.62955 33836 ft 445 kts 357°
2026-04-27 10:01 -11.67121 55.63025 33837 ft 445 kts 357°
2026-04-27 10:02 -11.60689 55.63095 33836 ft 445 kts 357°
2026-04-27 10:02 -11.54293 55.63164 33836 ft 445 kts 357°
2026-04-27 10:03 -11.47875 55.63232 33837 ft 445 kts 357°
2026-04-27 10:03 -11.41493 55.63302 33836 ft 444 kts 358°
2026-04-27 10:04 -11.35074 55.63371 33829 ft 445 kts 358°
2026-04-27 10:04 -11.28670 55.63441 33824 ft 445 kts 358°
2026-04-27 10:05 -11.22298 55.63510 33820 ft 445 kts 358°
2026-04-27 10:05 -11.15853 55.63580 33817 ft 445 kts 358°
2026-04-27 10:06 -11.09473 55.63648 33816 ft 444 kts 358°
2026-04-27 10:06 -11.03043 55.63718 33816 ft 444 kts 358°
2026-04-27 10:07 -10.96617 55.63787 33816 ft 445 kts 358°
2026-04-27 10:07 -10.90220 55.63856 33817 ft 445 kts 358°
2026-04-27 10:08 -10.83796 55.63927 33820 ft 445 kts 358°
2026-04-27 10:08 -10.77341 55.63997 33823 ft 445 kts 358°
2026-04-27 10:09 -10.70942 55.64067 33823 ft 445 kts 358°
2026-04-27 10:09 -10.64528 55.64136 33827 ft 445 kts 358°
2026-04-27 10:10 -10.58066 55.64205 33833 ft 445 kts 358°
2026-04-27 10:10 -10.51633 55.64275 33836 ft 445 kts 358°
2026-04-27 10:11 -10.45190 55.64344 33837 ft 445 kts 358°
2026-04-27 10:11 -10.38706 55.64415 33835 ft 445 kts 358°
2026-04-27 10:12 -10.32294 55.64483 33830 ft 445 kts 358°
2026-04-27 10:12 -10.25781 55.64555 33826 ft 445 kts 358°
2026-04-27 10:13 -10.19287 55.64626 33823 ft 446 kts 358°
2026-04-27 10:13 -10.12870 55.64696 33819 ft 445 kts 358°
2026-04-27 10:14 -10.06458 55.64768 33817 ft 445 kts 358°
2026-04-27 10:14 -9.99957 55.64840 33816 ft 445 kts 358°
2026-04-27 10:15 -9.93487 55.64902 33816 ft 446 kts 358°
2026-04-27 10:15 -9.86984 55.64965 33816 ft 446 kts 358°
2026-04-27 10:16 -9.80458 55.65033 33816 ft 446 kts 358°
2026-04-27 10:16 -9.74004 55.65100 33816 ft 445 kts 358°
2026-04-27 10:17 -9.67529 55.65168 33817 ft 445 kts 358°
2026-04-27 10:17 -9.61022 55.65236 33818 ft 445 kts 358°
2026-04-27 10:18 -9.54597 55.65303 33819 ft 445 kts 358°
2026-04-27 10:18 -9.48140 55.65372 33822 ft 446 kts 358°
2026-04-27 10:19 -9.41692 55.65439 33825 ft 446 kts 359°
2026-04-27 10:19 -9.35271 55.65506 33824 ft 445 kts 358°
2026-04-27 10:20 -9.28816 55.65573 33822 ft 445 kts 359°
2026-04-27 10:20 -9.22298 55.65642 33820 ft 445 kts 359°
2026-04-27 10:21 -9.15833 55.65709 33818 ft 446 kts 358°
2026-04-27 10:21 -9.09368 55.65776 33817 ft 446 kts 359°
2026-04-27 10:22 -9.02848 55.65845 33816 ft 445 kts 359°
2026-04-27 10:22 -8.96413 55.65915 33816 ft 445 kts 358°
2026-04-27 10:23 -8.90000 55.65981 33815 ft 445 kts 358°
2026-04-27 10:23 -8.83483 55.66048 33816 ft 446 kts 358°
2026-04-27 10:24 -8.77068 55.66115 33816 ft 445 kts 358°
2026-04-27 10:24 -8.70617 55.66182 33816 ft 446 kts 359°
2026-04-27 10:25 -8.64129 55.66251 33815 ft 446 kts 358°
2026-04-27 10:25 -8.57672 55.66318 33816 ft 446 kts 358°
2026-04-27 10:26 -8.51199 55.66385 33815 ft 446 kts 359°
2026-04-27 10:26 -8.44641 55.66453 33816 ft 446 kts 359°
2026-04-27 10:27 -8.38242 55.66519 33808 ft 446 kts 359°
2026-04-27 10:27 -8.31780 55.66587 33799 ft 446 kts 359°
2026-04-27 10:28 -8.25315 55.66655 33795 ft 446 kts 359°
2026-04-27 10:28 -8.18807 55.66724 33797 ft 446 kts 359°
2026-04-27 10:29 -8.12325 55.66792 33800 ft 446 kts 359°
2026-04-27 10:29 -8.05881 55.66858 33803 ft 446 kts 359°
2026-04-27 10:30 -7.99422 55.66927 33809 ft 446 kts 359°
2026-04-27 10:30 -7.92988 55.66994 33814 ft 446 kts 359°
2026-04-27 10:31 -7.86451 55.67063 33815 ft 446 kts 359°
2026-04-27 10:31 -7.79962 55.67133 33817 ft 446 kts 359°
2026-04-27 10:32 -7.73525 55.67204 33818 ft 446 kts 359°
2026-04-27 10:32 -7.67042 55.67273 33816 ft 445 kts 359°
2026-04-27 10:33 -7.60581 55.67228 33816 ft 445 kts 357°
2026-04-27 10:33 -7.54105 55.67074 33816 ft 444 kts 357°
2026-04-27 10:34 -7.47643 55.66931 33817 ft 444 kts 357°
2026-04-27 10:34 -7.41246 55.66800 33817 ft 444 kts 357°
2026-04-27 10:35 -7.34786 55.66670 33816 ft 444 kts 357°
2026-04-27 10:35 -7.28275 55.66541 33815 ft 444 kts 357°
2026-04-27 10:36 -7.21845 55.66414 33812 ft 444 kts 357°
2026-04-27 10:36 -7.15476 55.66289 33809 ft 444 kts 357°
2026-04-27 10:37 -7.09194 55.66166 33800 ft 443 kts 357°
2026-04-27 10:37 -7.02769 55.66038 33798 ft 443 kts 357°
2026-04-27 10:38 -6.96380 55.65913 33801 ft 443 kts 357°
2026-04-27 10:38 -6.90013 55.65787 33800 ft 443 kts 357°
2026-04-27 10:39 -6.83618 55.65660 33801 ft 443 kts 357°
2026-04-27 10:39 -6.77215 55.65537 33807 ft 443 kts 357°
2026-04-27 10:40 -6.74005 55.65474 33612 ft 441 kts 357°
2026-04-27 10:40 -6.70850 55.65413 32991 ft 440 kts 357°
2026-04-27 10:40 -6.67682 55.65350 32421 ft 437 kts 357°
2026-04-27 10:40 -6.64539 55.65288 31886 ft 436 kts 357°
2026-04-27 10:41 -6.61352 55.65224 31303 ft 438 kts 357°
2026-04-27 10:41 -6.58155 55.65161 30683 ft 440 kts 357°
2026-04-27 10:41 -6.54935 55.65097 30062 ft 442 kts 357°
2026-04-27 10:41 -6.51669 55.65033 29388 ft 444 kts 358°
2026-04-27 10:42 -6.48403 55.64968 28716 ft 446 kts 358°
2026-04-27 10:42 -6.45133 55.64903 28062 ft 444 kts 358°
2026-04-27 10:42 -6.41909 55.64838 27420 ft 442 kts 358°
2026-04-27 10:42 -6.38749 55.64775 26790 ft 440 kts 358°
2026-04-27 10:43 -6.35498 55.64710 26138 ft 437 kts 359°
2026-04-27 10:43 -6.32292 55.64647 25492 ft 435 kts 359°
2026-04-27 10:43 -6.29107 55.64585 24850 ft 432 kts 359°
2026-04-27 10:43 -6.26010 55.64525 24221 ft 430 kts 359°
2026-04-27 10:44 -6.22866 55.64463 23582 ft 427 kts 359°
2026-04-27 10:44 -6.19773 55.64402 23125 ft 421 kts 359°
2026-04-27 10:44 -6.16728 55.64343 22679 ft 415 kts 359°
2026-04-27 10:44 -6.13769 55.64285 22226 ft 410 kts 360°
2026-04-27 10:45 -6.10817 55.64230 21775 ft 406 kts 360°
2026-04-27 10:45 -6.07888 55.64174 21334 ft 402 kts 359°
2026-04-27 10:45 -6.04976 55.64118 20901 ft 397 kts 359°
2026-04-27 10:45 -6.02125 55.64064 20478 ft 394 kts 359°
2026-04-27 10:46 -5.99310 55.64009 20068 ft 389 kts 359°
2026-04-27 10:46 -5.96495 55.63954 19679 ft 385 kts 359°
2026-04-27 10:46 -5.93748 55.63902 19288 ft 381 kts 359°
2026-04-27 10:46 -5.90979 55.63848 18880 ft 377 kts 359°
2026-04-27 10:47 -5.88272 55.63795 18476 ft 374 kts 359°
2026-04-27 10:47 -5.85548 55.63742 18060 ft 371 kts 359°
2026-04-27 10:47 -5.82902 55.63691 17648 ft 368 kts 359°
2026-04-27 10:47 -5.80256 55.63641 17217 ft 366 kts 359°
2026-04-27 10:48 -5.77632 55.63589 16783 ft 364 kts 359°
2026-04-27 10:48 -5.75035 55.63538 16365 ft 362 kts 359°
2026-04-27 10:48 -5.72423 55.63486 15940 ft 360 kts 359°
2026-04-27 10:48 -5.69831 55.63435 15512 ft 358 kts 359°
2026-04-27 10:49 -5.67257 55.63385 15094 ft 356 kts 359°
2026-04-27 10:49 -5.64701 55.63335 14673 ft 354 kts 359°
2026-04-27 10:49 -5.62147 55.63286 14239 ft 353 kts 358°
2026-04-27 10:49 -5.59576 55.63236 13798 ft 351 kts 358°
2026-04-27 10:50 -5.57010 55.63186 13355 ft 349 kts 358°
2026-04-27 10:50 -5.54511 55.63137 12926 ft 347 kts 358°
2026-04-27 10:50 -5.52020 55.63088 12499 ft 345 kts 358°
2026-04-27 10:50 -5.49597 55.63041 12081 ft 343 kts 358°
2026-04-27 10:51 -5.47131 55.62993 11653 ft 341 kts 358°
2026-04-27 10:51 -5.44701 55.62945 11224 ft 339 kts 358°
2026-04-27 10:51 -5.42267 55.62899 10782 ft 337 kts 358°
2026-04-27 10:51 -5.39822 55.62851 10347 ft 335 kts 358°
2026-04-27 10:52 -5.37437 55.62806 9990 ft 329 kts 358°
2026-04-27 10:52 -5.35137 55.62761 9916 ft 314 kts 358°
2026-04-27 10:52 -5.32916 55.62719 9850 ft 300 kts 358°
2026-04-27 10:52 -5.30736 55.62678 9580 ft 294 kts 358°
2026-04-27 10:53 -5.28610 55.62637 9227 ft 292 kts 358°
2026-04-27 10:53 -5.24370 55.62557 8544 ft 288 kts 358°
2026-04-27 10:53 -5.22310 55.62516 8216 ft 285 kts 358°
2026-04-27 10:54 -5.20266 55.62476 7895 ft 283 kts 358°
2026-04-27 10:54 -5.18226 55.62437 7587 ft 280 kts 358°
2026-04-27 10:54 -5.16193 55.62400 7331 ft 275 kts 359°
2026-04-27 10:54 -5.14185 55.62402 7047 ft 272 kts 359°
2026-04-27 10:55 -5.12188 55.62420 6742 ft 270 kts 359°
2026-04-27 10:55 -5.10230 55.62438 6437 ft 268 kts 359°
2026-04-27 10:55 -5.08256 55.62454 6125 ft 267 kts 359°
2026-04-27 10:55 -5.06308 55.62469 5815 ft 265 kts 359°
2026-04-27 10:56 -5.04373 55.62483 5504 ft 264 kts 359°
2026-04-27 10:56 -5.02453 55.62496 5194 ft 263 kts 359°
2026-04-27 10:56 -5.00540 55.62509 4886 ft 262 kts 359°
2026-04-27 10:56 -4.98667 55.62523 4619 ft 259 kts 359°
2026-04-27 10:57 -4.96814 55.62536 4485 ft 254 kts 359°
2026-04-27 10:57 -4.94961 55.62548 4472 ft 244 kts 359°
2026-04-27 10:57 -4.93239 55.62560 4462 ft 229 kts 359°
2026-04-27 10:57 -4.91580 55.62543 4351 ft 220 kts 355°
2026-04-27 10:58 -4.89970 55.62454 4099 ft 218 kts 355°
2026-04-27 10:58 -4.88423 55.62359 3894 ft 213 kts 355°
2026-04-27 10:58 -4.86882 55.62266 3709 ft 205 kts 355°
2026-04-27 10:58 -4.85423 55.62178 3529 ft 194 kts 355°
2026-04-27 10:59 -4.84038 55.62096 3316 ft 186 kts 354°
2026-04-27 10:59 -4.82694 55.62014 3125 ft 175 kts 355°
2026-04-27 10:59 -4.81459 55.61942 2945 ft 165 kts 355°
2026-04-27 11:00 -4.79124 55.61802 2654 ft 159 kts 354°
2026-04-27 11:00 -4.77942 55.61732 2484 ft 159 kts 354°
2026-04-27 11:00 -4.76773 55.61662 2311 ft 159 kts 355°
2026-04-27 11:00 -4.75619 55.61592 2142 ft 158 kts 354°
2026-04-27 11:01 -4.74466 55.61512 2044 ft 160 kts 348°
2026-04-27 11:01 -4.73508 55.60957 1965 ft 154 kts 305°
2026-04-27 11:01 -4.72923 55.59988 1879 ft 153 kts 302°
2026-04-27 11:01 -4.72278 55.59099 1736 ft 151 kts 307°
2026-04-27 11:02 -4.71629 55.58210 1562 ft 150 kts 301°
2026-04-27 11:02 -4.71049 55.57305 1422 ft 149 kts 305°
2026-04-27 11:02 -4.70368 55.56480 1300 ft 146 kts 324°
2026-04-27 11:02 -4.69386 55.56106 1165 ft 139 kts 312°
2026-04-27 11:03 -4.69175 55.55146 748 ft 148 kts 275°
2026-04-27 11:03 -4.68825 55.54195 577 ft 143 kts 296°
2026-04-27 11:03 -4.68229 55.53319 326 ft 146 kts 306°
2026-04-27 11:03 -4.67323 55.52919 689 ft 143 kts
2026-04-27 11:04 -4.66337 55.53331 1234 ft 161 kts 43°
2026-04-27 11:04 -4.65700 55.54406 1665 ft 180 kts 76°
2026-04-27 11:04 -4.65795 55.55625 1748 ft 171 kts 119°
2026-04-27 11:04 -4.66592 55.56582 1697 ft 169 kts 137°
2026-04-27 11:05 -4.67459 55.57465 1570 ft 172 kts 135°
2026-04-27 11:05 -4.68335 55.58369 1482 ft 170 kts 136°
2026-04-27 11:05 -4.69323 55.59090 1344 ft 167 kts 167°
2026-04-27 11:05 -4.70496 55.58951 1131 ft 165 kts 211°
2026-04-27 11:06 -4.71146 55.58000 938 ft 161 kts 256°
2026-04-27 11:06 -4.70854 55.56971 812 ft 151 kts 306°
2026-04-27 11:06 -4.70172 55.56150 711 ft 142 kts 298°
2026-04-27 11:06 -4.69645 55.55270 578 ft 142 kts 304°
2026-04-27 11:07 -4.69010 55.54442 405 ft 144 kts 302°
2026-04-27 11:07 -4.68404 55.53591 220 ft 146 kts 301°
2026-04-27 11:07 -4.67799 55.52708 15 ft 137 kts 304°
2026-04-27 11:07 -4.67315 55.52008 18 ft 91 kts 305°
2026-04-27 11:08 -4.67038 55.51624 20 ft 38 kts 304°
2026-04-27 11:08 -4.66916 55.51446 20 ft 16 kts 304°
2026-04-27 11:08 -4.66904 55.51376 20 ft 10 kts 223°
2026-04-27 11:08 -4.66969 55.51328 20 ft 11 kts 216°
2026-04-27 11:09 -4.67010 55.51286 20 ft 6 kts 267°
2026-04-27 11:09 -4.66981 55.51241 20 ft 7 kts 303°
2026-04-27 11:09 -4.66967 55.51190 19 ft 7 kts 242°
2026-04-27 11:09 -4.66994 55.51168 19 ft 3 kts 215°
2026-04-27 11:10 -4.67015 55.51154 19 ft 1 kts 214°
2026-04-27 11:10 -4.67021 55.51150 19 ft 0 kts 214°